Corpus Christi, TX

5:06 PM CDT on April 23, 2017 (GMT -0500)
Corpus Christi International

Weather History for KCRP - December, 2013

Change the Weather History Date:

Saturday, December 7, 2013

  Actual Average Record
Temperature  
Mean Temperature 37 °F 60 °F  
Max Temperature 38 °F 70 °F 88 °F (1924)
Min Temperature 36 °F 50 °F 24 °F (1950)
Degree Days  
Heating Degree Days 28 7  
Month to date heating degree days 51 45  
Since 1 July heating degree days 208 146  
Cooling Degree Days 0 2  
Month to date cooling degree days 17 14  
Year to date cooling degree days 4129 3489  
Moisture  
Dew Point 28 °F    
Average Humidity 73    
Maximum Humidity 82    
Minimum Humidity 64    
Precipitation  
Precipitation T in 0.05 in 1.98 in (1960)
Month to date precipitation T 0.35  
Year to date precipitation 23.16 30.28  
Snow  
Snow 0.00 in - - ()
Month to date snowfall 0.0  
Since 1 July snowfall 0.0  
Snow Depth 0.00 in    
Sea Level Pressure  
Sea Level Pressure 30.36 in    
Wind  
Wind Speed 13 mph (North)    
Max Wind Speed 23 mph    
Max Gust Speed 28 mph    
Visibility 10 miles    
Events      
T = Trace of Precipitation, MM = Missing Value Source: NWS Daily Summary

Daily Weather History Graph

Daily Weather History Graph

Search for Another Location

Airport or City:

Trip Planner

Search our weather history database for the weather conditions in past years. The results will help you decide how hot, cold, wet, or windy it might be!

Date:

Astronomy

Dec. 07, 2013 Rise Set
Actual Time 7:08 AM CST 5:35 PM CST
Civil Twilight 6:42 AM CST 6:00 PM CST
Nautical Twilight 6:13 AM CST 6:29 PM CST
Astronomical Twilight 5:45 AM CST 6:58 PM CST
Moon 11:11 AM CST (12/7) 10:57 PM CST (12/7)
Length of Visible Light 11h 17m
Length of Day
10h 26m
Waxing Crescent, 29% of the Moon is Illuminated
Dec 7
Waxing Crescent
Dec 9
First Quarter
Dec 17
Full
Dec 25
Last Quarter
Jan 1
New

Hourly Weather History & Observations

Time (CST) Temp. Windchill Dew Point Humidity Pressure Visibility Wind Dir Wind Speed Gust Speed Precip Events Conditions
12:51 AM 37.9 °F 27.6 °F 28.0 °F 68% 30.37 in 10.0 mi North 20.7 mph - N/A   Overcast
1:10 AM 37.4 °F 28.5 °F 28.4 °F 70% 30.38 in 10.0 mi North 15.0 mph - N/A   Overcast
1:51 AM 37.0 °F 27.7 °F 28.0 °F 70% 30.39 in 10.0 mi North 16.1 mph - N/A   Overcast
2:51 AM 37.0 °F 28.5 °F 28.0 °F 70% 30.38 in 10.0 mi North 13.8 mph - N/A   Overcast
3:51 AM 37.0 °F 28.9 °F 28.0 °F 70% 30.38 in 10.0 mi North 12.7 mph - N/A   Overcast
4:51 AM 37.0 °F 28.9 °F 27.0 °F 67% 30.38 in 10.0 mi North 12.7 mph - N/A   Overcast
5:51 AM 37.0 °F 28.5 °F 27.0 °F 67% 30.38 in 10.0 mi North 13.8 mph - N/A   Overcast
6:51 AM 37.0 °F 28.9 °F 27.0 °F 67% 30.41 in 10.0 mi North 12.7 mph - N/A   Overcast
7:51 AM 37.0 °F 29.8 °F 27.0 °F 67% 30.42 in 10.0 mi North 10.4 mph - N/A   Overcast
8:51 AM 36.0 °F 27.1 °F 27.0 °F 70% 30.43 in 10.0 mi North 13.8 mph - N/A   Overcast
9:06 AM 35.6 °F 25.5 °F 26.6 °F 70% 30.42 in 10.0 mi North 17.3 mph - N/A   Overcast
9:36 AM 37.4 °F 29.3 °F 26.6 °F 65% 30.44 in 10.0 mi North 12.7 mph - N/A   Overcast
9:51 AM 36.0 °F 27.1 °F 27.0 °F 70% 30.44 in 10.0 mi North 13.8 mph - N/A   Overcast
10:51 AM 36.0 °F 26.7 °F 27.0 °F 70% 30.44 in 10.0 mi North 15.0 mph - N/A   Overcast
11:51 AM 37.0 °F 28.9 °F 27.0 °F 67% 30.42 in 10.0 mi North 12.7 mph - N/A   Overcast
12:51 PM 36.0 °F 27.5 °F 28.0 °F 73% 30.38 in 10.0 mi North 12.7 mph - N/A   Overcast
1:23 PM 37.4 °F 29.8 °F 28.4 °F 70% 30.36 in 10.0 mi North 11.5 mph - N/A   Overcast
1:51 PM 37.0 °F 29.3 °F 28.0 °F 70% 30.34 in 10.0 mi NNW 11.5 mph - N/A   Overcast
2:09 PM 37.4 °F 28.9 °F 28.4 °F 70% 30.33 in 10.0 mi North 13.8 mph - N/A   Overcast
2:51 PM 36.0 °F 28.0 °F 28.9 °F 76% 30.32 in 10.0 mi North 11.5 mph - N/A   Overcast
3:51 PM 36.0 °F 27.5 °F 28.9 °F 76% 30.30 in 10.0 mi North 12.7 mph - N/A   Overcast
4:51 PM 36.0 °F 28.0 °F 28.9 °F 76% 30.30 in 10.0 mi North 11.5 mph - N/A   Overcast
5:51 PM 36.0 °F 28.5 °F 28.9 °F 76% 30.30 in 10.0 mi North 10.4 mph - N/A   Overcast
6:51 PM 36.0 °F 28.0 °F 28.9 °F 76% 30.31 in 10.0 mi North 11.5 mph - N/A   Overcast
7:26 PM 35.6 °F 28.6 °F 28.4 °F 75% 30.32 in 10.0 mi North 9.2 mph - N/A   Overcast
7:51 PM 36.0 °F 29.0 °F 30.0 °F 79% 30.32 in 10.0 mi North 9.2 mph - N/A   Overcast
8:10 PM 35.6 °F 27.5 °F 30.2 °F 81% 30.31 in 10.0 mi North 11.5 mph - N/A   Overcast
8:51 PM 36.0 °F 27.5 °F 28.9 °F 76% 30.31 in 10.0 mi North 12.7 mph - N/A   Overcast
9:51 PM 36.0 °F 27.5 °F 30.0 °F 79% 30.31 in 9.0 mi North 12.7 mph - 0.00 in   Light Drizzle
10:51 PM 36.0 °F 28.5 °F 30.0 °F 79% 30.32 in 10.0 mi North 10.4 mph - 0.00 in   Overcast
11:51 PM 36.0 °F 29.0 °F 30.0 °F 79% 30.29 in 10.0 mi North 9.2 mph - N/A   Overcast